• In France
  • List of Countries
  • For 7 days
  • Water Temperature
  • Satellite Maps
  • Weather Map
  • Weather Widgets
  • user-avatar
    Login

    Hourly Weather Marcinow

    Today, 23 October, Tuesday

    Time Temperature Precipitation Wind Pressure Humidity
    00:00 +5°C° 0 mm 4 mps 757 mmHg 85%
    01:00 +4°C° 0 mm 4 mps 757 mmHg 87%
    02:00 +4°C° 0 mm 4 mps 756 mmHg 87%
    03:00 +4°C° 0 mm 4 mps 755 mmHg 86%
    04:00 +3°C° 0 mm 5 mps 755 mmHg 86%
    05:00 +3°C° 0 mm 5 mps 754 mmHg 84%
    06:00 +3°C° 0 mm 6 mps 753 mmHg 81%
    07:00 +3°C° 0 mm 7 mps 752 mmHg 80%
    08:00 +4°C° 0.1 mm 8 mps 751 mmHg 75%
    09:00 +5°C° 0.1 mm 9 mps 749 mmHg 71%
    10:00 +6°C° 0.1 mm 10 mps 748 mmHg 67%
    11:00 +6°C° 1.3 mm 11 mps 747 mmHg 70%
    12:00 +4°C° 1.3 mm 11 mps 745 mmHg 74%
    13:00 +4°C° 1.3 mm 12 mps 744 mmHg 77%
    14:00 +5°C° 0.8 mm 12 mps 743 mmHg 78%
    15:00 +5°C° 0.8 mm 12 mps 742 mmHg 79%
    16:00 +7°C° 0.8 mm 12 mps 741 mmHg 80%
    17:00 +7°C° 1.4 mm 11 mps 740 mmHg 82%
    18:00 +8°C° 1.4 mm 11 mps 739 mmHg 84%
    19:00 +8°C° 1.4 mm 10 mps 738 mmHg 86%
    20:00 +8°C° 0.8 mm 10 mps 738 mmHg 82%
    21:00 +8°C° 0.8 mm 10 mps 738 mmHg 79%
    22:00 +8°C° 0.8 mm 10 mps 738 mmHg 76%
    23:00 +7°C° 0.1 mm 10 mps 738 mmHg 75%

    Tomorrow, 24 October, Wednesday

    Time Temperature Precipitation Wind Pressure Humidity
    00:00 +7°C° 0.1 mm 10 mps 737 mmHg 74%
    01:00 +6°C° 0.1 mm 10 mps 737 mmHg 74%
    02:00 +6°C° 0.1 mm 10 mps 737 mmHg 71%
    03:00 +5°C° 0.1 mm 10 mps 737 mmHg 68%
    04:00 +5°C° 0.1 mm 10 mps 738 mmHg 65%
    05:00 +5°C° 0.1 mm 10 mps 738 mmHg 65%
    06:00 +3°C° 0.1 mm 9 mps 739 mmHg 66%
    07:00 +3°C° 0.1 mm 9 mps 740 mmHg 67%
    08:00 +5°C° 0 mm 10 mps 741 mmHg 60%
    09:00 +4°C° 0 mm 11 mps 741 mmHg 53%
    10:00 +6°C° 0 mm 11 mps 742 mmHg 46%
    11:00 +6°C° 0 mm 11 mps 742 mmHg 45%
    12:00 +6°C° 0 mm 11 mps 743 mmHg 44%
    13:00 +6°C° 0 mm 11 mps 743 mmHg 43%
    14:00 +6°C° 0 mm 10 mps 744 mmHg 45%
    15:00 +6°C° 0 mm 9 mps 744 mmHg 46%
    16:00 +6°C° 0 mm 8 mps 745 mmHg 48%
    17:00 +5°C° 0 mm 8 mps 746 mmHg 51%
    18:00 +4°C° 0 mm 7 mps 746 mmHg 53%
    19:00 +4°C° 0 mm 7 mps 747 mmHg 56%
    20:00 +3°C° 0 mm 6 mps 747 mmHg 58%
    21:00 +3°C° 0 mm 6 mps 748 mmHg 60%
    22:00 +3°C° 0 mm 6 mps 748 mmHg 61%
    23:00 +3°C° 0 mm 6 mps 748 mmHg 65%

    Day after tomorrow, 25 October, Thursday

    Time Temperature Precipitation Wind Pressure Humidity
    00:00 +2°C° 0 mm 6 mps 748 mmHg 68%
    01:00 +2°C° 0 mm 6 mps 748 mmHg 71%
    02:00 +2°C° 0 mm 5 mps 748 mmHg 72%
    03:00 +2°C° 0 mm 5 mps 747 mmHg 73%
    04:00 +2°C° 0 mm 5 mps 747 mmHg 74%
    05:00 +2°C° 0.7 mm 5 mps 746 mmHg 79%
    06:00 +3°C° 0.7 mm 5 mps 745 mmHg 83%
    07:00 +3°C° 0.7 mm 5 mps 744 mmHg 88%
    08:00 +5°C° 1 mm 6 mps 744 mmHg 88%
    09:00 +6°C° 1 mm 7 mps 743 mmHg 89%
    10:00 +9°C° 1 mm 8 mps 742 mmHg 89%
    11:00 +8°C° 0.3 mm 9 mps 742 mmHg 87%
    12:00 +10°C° 0.3 mm 9 mps 742 mmHg 85%
    13:00 +9°C° 0.3 mm 10 mps 741 mmHg 83%
    14:00 +9°C° 0.2 mm 10 mps 742 mmHg 81%
    15:00 +10°C° 0.2 mm 9 mps 742 mmHg 79%
    16:00 +10°C° 0.2 mm 9 mps 742 mmHg 77%
    17:00 +9°C° 0.1 mm 8 mps 742 mmHg 76%
    18:00 +9°C° 0.1 mm 7 mps 743 mmHg 76%
    19:00 +8°C° 0.1 mm 7 mps 743 mmHg 75%
    20:00 +7°C° 0 mm 6 mps 743 mmHg 76%
    21:00 +7°C° 0 mm 6 mps 744 mmHg 77%
    22:00 +6°C° 0 mm 5 mps 744 mmHg 78%
    23:00 +6°C° 0 mm 5 mps 744 mmHg 79%

    26 October, Friday

    Time Temperature Precipitation Wind Pressure Humidity
    00:00 +6°C° 0 mm 5 mps 744 mmHg 81%
    01:00 +5°C° 0 mm 5 mps 745 mmHg 82%
    02:00 +5°C° 0 mm 5 mps 745 mmHg 83%
    03:00 +5°C° 0 mm 5 mps 745 mmHg 85%
    04:00 +5°C° 0 mm 5 mps 745 mmHg 86%
    05:00 +5°C° 0 mm 5 mps 745 mmHg 87%
    06:00 +4°C° 0 mm 4 mps 745 mmHg 89%
    07:00 +4°C° 0 mm 4 mps 745 mmHg 90%
    08:00 +5°C° 0 mm 4 mps 744 mmHg 87%
    09:00 +6°C° 0 mm 4 mps 744 mmHg 84%
    10:00 +7°C° 0 mm 4 mps 744 mmHg 81%
    11:00 +8°C° 0.1 mm 4 mps 743 mmHg 81%
    12:00 +9°C° 0.1 mm 5 mps 743 mmHg 82%
    13:00 +9°C° 0.1 mm 5 mps 742 mmHg 82%
    14:00 +10°C° 0 mm 5 mps 742 mmHg 81%
    15:00 +10°C° 0 mm 5 mps 741 mmHg 79%
    16:00 +11°C° 0 mm 4 mps 741 mmHg 78%
    17:00 +10°C° 0 mm 5 mps 740 mmHg 77%
    18:00 +9°C° 0 mm 6 mps 740 mmHg 76%
    19:00 +9°C° 0 mm 6 mps 740 mmHg 75%
    20:00 +8°C° 0 mm 7 mps 740 mmHg 74%
    21:00 +8°C° 0 mm 7 mps 740 mmHg 74%
    22:00 +8°C° 0 mm 7 mps 740 mmHg 73%
    23:00 +6°C° 0 mm 8 mps 740 mmHg 73%

    27 October, Saturday

    Time Temperature Precipitation Wind Pressure Humidity
    00:00 +6°C° 0 mm 8 mps 740 mmHg 72%
    01:00 +6°C° 0 mm 8 mps 740 mmHg 72%
    02:00 +5°C° 0 mm 8 mps 740 mmHg 72%
    03:00 +5°C° 0 mm 8 mps 741 mmHg 73%
    04:00 +4°C° 0 mm 8 mps 741 mmHg 73%
    05:00 +4°C° 0 mm 8 mps 741 mmHg 73%
    06:00 +4°C° 0 mm 8 mps 742 mmHg 72%
    07:00 +4°C° 0 mm 8 mps 742 mmHg 72%
    08:00 +4°C° 0 mm 8 mps 743 mmHg 70%
    09:00 +5°C° 0 mm 8 mps 743 mmHg 68%
    10:00 +5°C° 0 mm 8 mps 744 mmHg 66%
    11:00 +5°C° 0 mm 7 mps 744 mmHg 65%
    12:00 +6°C° 0 mm 7 mps 744 mmHg 64%
    13:00 +7°C° 0 mm 6 mps 744 mmHg 63%
    14:00 +7°C° 0 mm 5 mps 744 mmHg 64%
    15:00 +7°C° 0 mm 4 mps 745 mmHg 64%
    16:00 +7°C° 0 mm 3 mps 745 mmHg 65%
    17:00 +7°C° 0 mm 3 mps 745 mmHg 67%
    18:00 +6°C° 0 mm 2 mps 746 mmHg 70%
    19:00 +6°C° 0 mm 2 mps 747 mmHg 73%
    20:00 +7°C° 0 mm 1 mps 747 mmHg 75%
    21:00 +6°C° 0 mm 1 mps 747 mmHg 76%
    22:00 +6°C° 0 mm 1 mps 747 mmHg 77%
    23:00 +6°C° 0 mm 1 mps 747 mmHg 78%

    28 October, Sunday

    Time Temperature Precipitation Wind Pressure Humidity
    00:00 +6°C° 0 mm 1 mps 747 mmHg 78%
    01:00 +6°C° 0 mm 1 mps 747 mmHg 78%
    02:00 +6°C° 0 mm 1 mps 748 mmHg 79%
    03:00 +5°C° 0 mm 2 mps 748 mmHg 79%
    04:00 +4°C° 0 mm 2 mps 748 mmHg 79%
    05:00 +4°C° 0 mm 2 mps 748 mmHg 79%
    06:00 +3°C° 0 mm 3 mps 748 mmHg 79%
    07:00 +3°C° 0 mm 3 mps 749 mmHg 78%
    08:00 +4°C° 0.1 mm 3 mps 749 mmHg 77%
    09:00 +4°C° 0.1 mm 4 mps 749 mmHg 75%
    10:00 +5°C° 0.1 mm 4 mps 749 mmHg 73%
    11:00 +5°C° 0.5 mm 4 mps 748 mmHg 72%
    12:00 +5°C° 0.5 mm 5 mps 748 mmHg 72%
    13:00 +4°C° 0.5 mm 6 mps 748 mmHg 71%
    14:00 +4°C° 0.9 mm 6 mps 748 mmHg 73%
    15:00 +3°C° 0.9 mm 6 mps 748 mmHg 75%
    16:00 +3°C° 0.9 mm 7 mps 748 mmHg 77%
    17:00 +3°C° 0.5 mm 7 mps 747 mmHg 78%
    18:00 +3°C° 0.5 mm 7 mps 747 mmHg 79%
    19:00 +3°C° 0.5 mm 7 mps 747 mmHg 80%
    20:00 +2°C° 0.2 mm 8 mps 747 mmHg 80%
    21:00 +2°C° 0.2 mm 8 mps 747 mmHg 81%
    22:00 +2°C° 0.2 mm 8 mps 746 mmHg 81%
    23:00 +2°C° 1.8 mm 8 mps 746 mmHg 82%

    29 October, Monday

    Time Temperature Precipitation Wind Pressure Humidity
    00:00 +2°C° 1.8 mm 9 mps 746 mmHg 83%
    01:00 +2°C° 1.8 mm 9 mps 745 mmHg 84%
    02:00 +1°C° 1.5 mm 9 mps 745 mmHg 83%
    03:00 +1°C° 1.5 mm 9 mps 744 mmHg 83%
    04:00 +1°C° 1.5 mm 10 mps 744 mmHg 83%
    05:00 +1°C° 1.3 mm 10 mps 743 mmHg 84%
    06:00 +1°C° 1.3 mm 9 mps 743 mmHg 84%
    07:00 +1°C° 1.3 mm 9 mps 743 mmHg 85%
    08:00 +1°C° 1.1 mm 9 mps 743 mmHg 85%
    09:00 +1°C° 1.1 mm 9 mps 742 mmHg 86%
    10:00 +1°C° 1.1 mm 9 mps 742 mmHg 86%
    11:00 +1°C° 1.5 mm 9 mps 742 mmHg 87%
    12:00 +1°C° 1.5 mm 8 mps 742 mmHg 88%
    13:00 +1°C° 1.5 mm 8 mps 741 mmHg 88%
    14:00 +1°C° 0.9 mm 8 mps 741 mmHg 89%
    15:00 +2°C° 0.9 mm 7 mps 741 mmHg 90%
    16:00 +2°C° 0.9 mm 7 mps 740 mmHg 90%
    17:00 +2°C° 0.3 mm 6 mps 740 mmHg 91%
    18:00 +2°C° 0.3 mm 6 mps 740 mmHg 91%
    19:00 +3°C° 0.3 mm 5 mps 740 mmHg 92%
    20:00 +3°C° 0 mm 5 mps 740 mmHg 92%
    21:00 +3°C° 0 mm 5 mps 740 mmHg 93%
    22:00 +3°C° 0 mm 5 mps 740 mmHg 93%
    23:00 +3°C° 0 mm 5 mps 740 mmHg 94%
    Show more